Location: Unspecified
(0.0000°N, 0.0000°E)
Time: 14:14:38
(UTC+00:00)

FORMOSAT 3A - Pass Details

Date: 25 May 2026
Orbit: 751 x 823 km, 72.0° (Epoch: 5 June)

Event Time Altitude Azimuth Distance (km) Brightness Sun altitude
Rises 20:08:38 0° 326° (NW) 3,303 11.1 -30.5°
Reaches altitude 10° 20:11:20 10° 315° (NW) 2,364 10.3 -31.1°
Maximum altitude 20:15:58 29° 256° (WSW) 1,400 8.7 -32.1°
Enters shadow 20:17:12 27° 232° (SW) 1,486 8.6 -32.4°
